GW5197 Weather Reports


time (UTC)temp
F
wind
direction
speed
knots
gust
knots
rain 1hr
in
rain 24hr
in
rain mn
in
humidity
%
barometer
mb
20260504174659 74 195 0.0 0.9 0.00 0.00 0.00 41 1017.0
20260504174200 74 94 0.9 2.6 0.00 0.00 0.00 44 1017.0
20260504173659 74 52 1.7 2.6 0.00 0.00 0.00 46 1017.0
20260504173159 74 41 2.6 3.5 0.00 0.00 0.00 43 1017.0
20260504172701 74 22 1.7 3.5 0.00 0.00 0.00 45 1017.0
20260504172159 73 359 1.7 3.5 0.00 0.00 0.00 44 1017.0
20260504171659 72 59 1.7 3.5 0.00 0.00 0.00 46 1017.0
20260504171159 71 223 0.9 1.7 0.00 0.00 0.00 46 1017.0
20260504170657 72 225 2.6 3.5 0.00 0.00 0.00 45 1017.0
20260504170200 72 273 0.9 2.6 0.00 0.00 0.00 46 1017.0
20260504160159 71 299 0.9 3.5 0.00 0.00 0.00 45 1018.0
20260504150700 68 44 3.5 7.0 0.00 0.00 0.00 48 1018.0
20260504150200 67 328 1.7 1.7 0.00 0.00 0.00 49 1018.0
20260504141200 63 270 1.7 2.6 0.00 0.00 0.00 57 1018.0
20260504140658 63 305 1.7 3.5 0.00 0.00 0.00 60 1018.0
20260504140159 62 314 0.9 1.7 0.00 0.00 0.00 62 1018.0
20260504130700 55 63 0.9 1.7 0.00 0.00 0.00 72 1018.0
20260504130158 53 69 1.7 1.7 0.00 0.00 0.00 77 1018.0
20260504120159 46 80 0.9 0.9 0.00 0.00 0.00 100 1018.0
20260504110659 44 94 0.9 0.9 0.00 0.00 0.00 99 1018.0
20260504110159 44 172 0.9 1.7 0.00 0.00 0.00 99 1018.0
20260504100159 45 81 0.9 1.7 0.00 0.00 0.00 94 1018.0
20260504081659 48 206 0.9 1.7 0.00 0.00 0.00 81 1018.0
20260504081159 48 216 0.9 1.7 0.00 0.00 0.00 81 1018.0
20260504080659 48 213 0.0 1.7 0.00 0.00 0.00 83 1018.0
20260504080158 48 203 0.9 1.7 0.00 0.00 0.00 82 1018.0
20260504070158 48 85 0.9 1.7 0.00 0.00 0.00 85 1018.0
20260504060158 51 102 1.7 3.5 0.00 0.00 0.00 75 1018.0
20260504050657 52 65 0.9 2.6 0.00 0.00 0.00 70 1019.0
20260504050159 53 64 0.9 2.6 0.00 0.00 0.00 70 1019.0
20260504045659 53 350 1.7 4.3 0.00 0.00 0.00 69 1019.0
20260504045158 53 347 1.7 4.3 0.00 0.00 0.00 68 1019.0
20260504044658 53 333 1.7 3.5 0.00 0.00 0.00 68 1018.0
20260504044203 54 102 0.9 2.6 0.00 0.00 0.00 69 1019.0
20260504043657 54 61 0.9 2.6 0.00 0.00 0.00 68 1018.0
20260504043157 54 236 1.7 3.5 0.00 0.00 0.00 66 1018.0
20260504042658 54 217 1.7 2.6 0.00 0.00 0.00 66 1019.0
20260504042159 54 16 0.0 1.7 0.00 0.00 0.00 65 1019.0
20260504041659 54 219 0.9 3.5 0.00 0.00 0.00 65 1019.0
20260504041157 54 235 1.7 3.5 0.00 0.00 0.00 66 1019.0
20260504040657 54 58 0.9 2.6 0.00 0.00 0.00 66 1019.0
20260504040157 54 49 0.9 2.6 0.00 0.00 0.00 66 1019.0
20260504035657 54 103 0.9 3.5 0.00 0.00 0.00 63 1019.0
20260504035157 54 262 0.9 2.6 0.00 0.00 0.00 64 1019.0
20260504034657 54 102 0.9 1.7 0.00 0.00 0.00 65 1019.0
20260504034158 54 216 0.9 2.6 0.00 0.00 0.00 67 1019.0
20260504033657 54 87 1.7 2.6 0.00 0.00 0.00 66 1019.0
20260504033157 54 66 0.9 1.7 0.00 0.00 0.00 70 1019.0
20260504032658 54 72 0.9 1.7 0.00 0.00 0.00 69 1019.0
20260504032158 55 65 1.7 2.6 0.00 0.00 0.00 67 1019.0
20260504031657 54 68 0.9 2.6 0.00 0.00 0.00 64 1019.0
20260504031200 54 105 0.9 2.6 0.00 0.00 0.00 65 1019.0
20260504030227 55 23 0.9 2.6 0.00 0.00 0.00 67 1019.0
20260504025657 55 39 0.9 2.6 0.00 0.00 0.00 65 1019.0
20260504025157 55 205 0.9 2.6 0.00 0.00 0.00 65 1019.0
20260504024658 55 68 0.9 1.7 0.00 0.00 0.00 65 1019.0
20260504024157 55 125 0.0 0.9 0.00 0.00 0.00 63 1019.0
20260504023657 56 84 0.9 1.7 0.00 0.00 0.00 62 1019.0
20260504023159 56 153 0.9 1.7 0.00 0.00 0.00 62 1018.0
20260504022659 56 70 0.9 1.7 0.00 0.00 0.00 63 1018.0
20260504022158 56 63 0.0 1.7 0.00 0.00 0.00 63 1018.0
20260504021658 56 84 1.7 1.7 0.00 0.00 0.00 59 1018.0
20260504021158 57 104 0.0 0.9 0.00 0.00 0.00 60 1018.0
20260504020657 57 85 0.9 0.9 0.00 0.00 0.00 60 1018.0
20260504020157 57 201 0.0 0.9 0.00 0.00 0.00 58 1018.0
20260504015657 57 258 0.0 1.7 0.00 0.00 0.00 58 1018.0
20260504015159 57 69 0.0 0.0 0.00 0.00 0.00 58 1018.0
20260504014657 58 62 0.0 0.9 0.00 0.00 0.00 58 1018.0
20260504014157 58 114 0.0 0.9 0.00 0.00 0.00 56 1018.0
20260504013657 58 161 0.0 0.9 0.00 0.00 0.00 55 1018.0
20260504013158 58 162 0.0 0.9 0.00 0.00 0.00 54 1018.0
20260504012657 59 185 0.0 0.9 0.00 0.00 0.00 53 1018.0
20260504012159 59 92 0.0 1.7 0.00 0.00 0.00 53 1018.0
20260504011658 59 346 0.0 0.9 0.00 0.00 0.00 53 1018.0
20260504011158 60 26 0.0 0.9 0.00 0.00 0.00 53 1018.0
20260504010657 60 63 0.0 0.9 0.00 0.00 0.00 52 1018.0
20260504010157 60 270 0.0 0.9 0.00 0.00 0.00 53 1018.0
20260504005659 61 23 0.0 0.9 0.00 0.00 0.00 51 1018.0
20260504005157 61 59 0.0 0.9 0.00 0.00 0.00 51 1018.0
20260504004657 62 63 0.0 0.9 0.00 0.00 0.00 50 1018.0
20260504004157 62 70 0.0 0.9 0.00 0.00 0.00 49 1017.0
20260504003657 62 48 0.0 0.9 0.00 0.00 0.00 47 1017.0
20260504003158 63 7 0.0 1.7 0.00 0.00 0.00 47 1017.0
20260504002658 63 56 0.0 0.0 0.00 0.00 0.00 47 1017.0
20260504002157 63 21 0.0 0.9 0.00 0.00 0.00 46 1017.0
20260504001658 64 357 0.0 0.9 0.00 0.00 0.00 46 1017.0
20260504001157 64 23 0.0 1.7 0.00 0.00 0.00 45 1017.0
20260504000657 64 339 0.9 0.9 0.00 0.00 0.00 44 1017.0
20260504000157 65 12 0.9 1.7 0.00 0.00 0.00 44 1017.0
20260503235657 65 358 0.9 0.9 0.00 0.00 0.00 43 1017.0
20260503235157 65 1 0.9 2.6 0.00 0.00 0.00 44 1017.0
20260503234657 65 353 0.9 1.7 0.00 0.00 0.00 43 1017.0
20260503234158 65 356 0.9 0.9 0.00 0.00 0.00 43 1017.0
20260503233658 66 322 0.9 1.7 0.00 0.00 0.00 43 1017.0
20260503233157 66 42 0.9 1.7 0.00 0.00 0.00 43 1017.0
20260503232657 66 348 0.9 1.7 0.00 0.00 0.00 41 1017.0
20260503232157 66 356 0.9 1.7 0.00 0.00 0.00 41 1017.0
20260503231657 66 23 1.7 3.5 0.00 0.00 0.00 40 1017.0
20260503231157 66 30 1.7 6.1 0.00 0.00 0.00 40 1017.0
20260503230657 67 343 0.9 1.7 0.00 0.00 0.00 39 1017.0
20260503230158 67 34 1.7 3.5 0.00 0.00 0.00 39 1017.0
20260503225657 67 2 1.7 1.7 0.00 0.00 0.00 39 1017.0
20260503225158 67 357 2.6 3.5 0.00 0.00 0.00 39 1017.0
20260503224657 67 25 3.5 5.2 0.00 0.00 0.00 38 1017.0
20260503224158 67 16 3.5 7.8 0.00 0.00 0.00 38 1017.0
20260503223658 67 315 0.9 2.6 0.00 0.00 0.00 39 1017.0
20260503223157 67 291 1.7 2.6 0.00 0.00 0.00 38 1017.0
20260503222657 67 35 3.5 4.3 0.00 0.00 0.00 37 1017.0
20260503222157 67 315 0.9 2.6 0.00 0.00 0.00 37 1017.0
20260503221657 67 34 1.7 4.3 0.00 0.00 0.00 37 1017.0
20260503221158 67 300 2.6 3.5 0.00 0.00 0.00 39 1017.0
20260503220658 67 10 1.7 3.5 0.00 0.00 0.00 38 1017.0
20260503220158 67 169 0.0 1.7 0.00 0.00 0.00 40 1017.0
20260503215657 67 359 1.7 4.3 0.00 0.00 0.00 38 1017.0
20260503215157 67 20 4.3 5.2 0.00 0.00 0.00 38 1017.0
20260503214657 67 42 2.6 3.5 0.00 0.00 0.00 39 1017.0
20260503214158 67 349 1.7 2.6 0.00 0.00 0.00 39 1017.0
20260503213657 68 4 1.7 2.6 0.00 0.00 0.00 38 1017.0
20260503213157 68 318 1.7 3.5 0.00 0.00 0.00 37 1017.0
20260503212657 68 288 2.6 4.3 0.00 0.00 0.00 39 1017.0
20260503212158 68 307 2.6 3.5 0.00 0.00 0.00 39 1018.0
20260503211657 67 281 1.7 4.3 0.00 0.00 0.00 40 1017.0
20260503211157 67 106 0.0 0.9 0.00 0.00 0.00 40 1018.0
20260503210657 67 10 6.1 8.7 0.00 0.00 0.00 40 1018.0
20260503210157 67 65 2.6 4.3 0.00 0.00 0.00 39 1018.0
20260503205657 67 17 5.2 7.8 0.00 0.00 0.00 39 1018.0
20260503205157 68 5 4.3 7.0 0.00 0.00 0.00 39 1018.0
20260503204657 68 22 2.6 5.2 0.00 0.00 0.00 38 1018.0
20260503204157 67 52 1.7 3.5 0.00 0.00 0.00 41 1018.0
20260503203657 67 309 2.6 3.5 0.00 0.00 0.00 41 1018.0
20260503203158 67 68 1.7 3.5 0.00 0.00 0.00 40 1018.0
20260503202657 67 334 0.9 1.7 0.00 0.00 0.00 41 1018.0
20260503202157 67 342 3.5 5.2 0.00 0.00 0.00 40 1018.0
20260503201658 67 28 2.6 4.3 0.00 0.00 0.00 39 1018.0
20260503201157 67 294 1.7 3.5 0.00 0.00 0.00 39 1018.0
20260503200657 67 45 1.7 1.7 0.00 0.00 0.00 40 1018.0
20260503200200 67 53 0.9 3.5 0.00 0.00 0.00 40 1018.0
20260503195657 67 29 1.7 2.6 0.00 0.00 0.00 41 1018.0
20260503195157 67 19 4.3 6.1 0.00 0.00 0.00 41 1019.0
20260503194658 67 24 3.5 7.0 0.00 0.00 0.00 41 1019.0
20260503194157 67 284 1.7 3.5 0.00 0.00 0.00 39 1019.0
20260503193658 67 277 1.7 3.5 0.00 0.00 0.00 40 1019.0
20260503193158 67 57 0.9 2.6 0.00 0.00 0.00 40 1019.0
20260503192658 66 308 1.7 3.5 0.00 0.00 0.00 41 1019.0
20260503192158 66 33 3.5 5.2 0.00 0.00 0.00 40 1019.0
20260503191657 66 38 0.9 2.6 0.00 0.00 0.00 40 1019.0
20260503191157 66 58 1.7 2.6 0.00 0.00 0.00 41 1019.0
20260503190658 66 14 3.5 5.2 0.00 0.00 0.00 40 1019.0
20260503190158 66 259 3.5 4.3 0.00 0.00 0.00 36 1019.0
20260503185657 65 327 1.7 3.5 0.00 0.00 0.00 43 1020.0
20260503185157 65 113 0.9 1.7 0.00 0.00 0.00 40 1019.0
20260503184658 65 335 1.7 3.5 0.00 0.00 0.00 42 1020.0
20260503184159 65 36 4.3 7.8 0.00 0.00 0.00 42 1020.0
20260503183657 65 35 3.5 5.2 0.00 0.00 0.00 43 1020.0
20260503183158 65 32 3.5 4.3 0.00 0.00 0.00 42 1020.0
20260503182657 64 3 2.6 4.3 0.00 0.00 0.00 43 1020.0
20260503182158 64 260 0.9 2.6 0.00 0.00 0.00 42 1020.0
20260503181657 64 18 2.6 4.3 0.00 0.00 0.00 41 1020.0
20260503181159 64 53 3.5 7.0 0.00 0.00 0.00 44 1020.0
20260503180657 64 339 1.7 3.5 0.00 0.00 0.00 43 1020.0
20260503180157 64 222 1.7 3.5 0.00 0.00 0.00 43 1020.0
20260503175658 64 307 1.7 3.5 0.00 0.00 0.00 45 1020.0
20260503175157 64 272 1.7 2.6 0.00 0.00 0.00 45 1020.0